Meteo Giornale » Osservazioni meteo Francia » Parigi-Orly

ore: 04:30 - Osservazioni Meteo Parigi-Orly
Lat. 48° 44' N Lon. 2° 24' E Alt. 89 metri s.l.m.

molto_nuvoloso Europe/Paris

16 °C

Molto Nuvoloso

Temp. 24 Ore

16 °C

20 °C

Ovest/Sud-Ovest

9.3 Km/h

Dew point 15 °C

Umidità 93 %

Visibilità  10 Km

Il sole sorge alle ore 06:17

Il sole tramonta alle ore 21:36

Data e Ora Cielo e Fenomeni T °C DP °C Um. % Pres. hPa Vis. km Vento km/h
Oggi h: 04:30 molto_nuvoloso Molto Nuvoloso 16 15 93 1012 10 O/SO 9.3
Oggi h: 03:00 molto_nuvoloso Molto Nuvoloso 17 16 93 1012 10 O/SO 9.3
Oggi h: 02:00 molto_nuvoloso Molto Nuvoloso 17 16 93 1012 10 O/SO 11.1
Oggi h: 01:30 molto_nuvoloso Molto Nuvoloso 17 16 93 1012 10 O/SO 9.3
Oggi h: 01:00 molto_nuvoloso Molto Nuvoloso 17 16 93 1012 10 SO 7.4
Oggi h: 00:30 molto_nuvoloso Molto Nuvoloso 17 16 93 1012 10 S/SO 9.3
Oggi h: 00:00 molto_nuvoloso Molto Nuvoloso 17 16 93 1012 10 S/SO 11.1
Ieri h: 23:30 molto_nuvoloso Molto Nuvoloso 17 16 93 1012 10 S/SO 7.4
Ieri h: 23:00 molto_nuvoloso Molto Nuvoloso 18 16 88 1012 10 S 9.3
Ieri h: 22:30 molto_nuvoloso Molto Nuvoloso 18 16 88 1012 10 S 11.1
Ieri h: 22:00 molto_nuvoloso Molto Nuvoloso 18 16 88 1012 10 S 11.1
Ieri h: 21:30 molto_nuvoloso Molto Nuvoloso 18 16 88 1012 10 S 11.1
Ieri h: 21:00 molto_nuvoloso Molto Nuvoloso 19 16 82 1012 10 S/SO 14.8
Ieri h: 20:30 molto_nuvoloso Molto Nuvoloso 19 16 82 1011 10 S/SO 18.5
Ieri h: 19:30 molto_nuvoloso Molto Nuvoloso 19 16 82 1011 10 S/SO 13
Ieri h: 19:00 molto_nuvoloso Molto Nuvoloso 19 16 82 1011 10 S/SO 20.3
Ieri h: 18:30 molto_nuvoloso Molto Nuvoloso 20 16 77 1012 10 S 24
Ieri h: 18:00 nuvoloso Nuvoloso 20 17 82 1012 10 S/SO 20.3
Ieri h: 17:30 molto_nuvoloso Molto Nuvoloso 19 18 93 1012 10 S 16.7
Ieri h: 17:00 molto_nuvoloso Molto Nuvoloso 18 17 93 1012 8 S 18.5
Ieri h: 16:30 nuvoloso_piovaschi Debole Rovescio di Pioggia Foschia 18 17 93 1012 4 S 22.2
Ieri h: 16:00 nuvoloso_piovaschi Debole Rovescio di Pioggia 18 17 93 1013 10 S 18.5
Ieri h: 15:30 coperto_pioggia Pioggia Debole 18 17 93 1013 10 S 13
Ieri h: 15:00 coperto_pioggia Pioggia Debole 18 16 88 1013 10 S 13
Ieri h: 14:30 coperto_pioggia Pioggia Debole 17 15 88 1013 6 S 13
Ieri h: 13:30 coperto_pioggia Pioggia Debole 18 16 88 1013 10 S 13
Ieri h: 13:00 coperto_pioggia Pioggia Debole 18 16 88 1013 10 S/SO 13
Ieri h: 12:30 coperto_pioggia Pioggia Debole 18 16 88 1014 10 SO 16.7
Ieri h: 12:00 coperto_pioggia Pioggia Debole 18 16 88 1013 10 SO 13
Ieri h: 11:30 coperto_pioggia Pioggia Debole 18 16 88 1013 10 S/SO 13
Ieri h: 11:00 coperto_pioggia Pioggia Debole 18 15 82 1013 10 S 13
Ieri h: 10:30 coperto_pioggia Pioggia Debole 18 15 82 1013 10 S/SO 9.3
Ieri h: 10:00 coperto Coperto 18 15 82 1013 10 S 14.8
Ieri h: 09:30 coperto Coperto 18 15 82 1013 10 SO 13
Ieri h: 09:00 coperto_pioggia Pioggia Debole 17 15 88 1013 10 SO 13
Ieri h: 08:30 coperto Coperto 17 15 88 1013 10 SO 13
Ieri h: 08:00 coperto Coperto 17 15 88 1013 10 SO 13
Ieri h: 07:30 coperto Coperto 17 15 88 1012 10 S/SO 11.1
Ieri h: 07:00 molto_nuvoloso Molto Nuvoloso 17 15 88 1012 10 S 9.3
Ieri h: 06:30 molto_nuvoloso Molto Nuvoloso 17 15 88 1012 10 S 9.3
Ieri h: 06:00 molto_nuvoloso Molto Nuvoloso 17 15 88 1012 10 S 7.4